SL-14 R/B, 20827

Orbit data source: Space-Track

SL-14 R/B, 20827 is space debris in LEO originally from a launch on Fri, 28 Sep 1990 UTC launched from the Plesetsk Missile And Space Complex (PKMTR). Debris objects in space refer to the collection of defunct objects orbiting the Earth. Examples of debris include non-operational satellites, rocket bodies, and fragments generated from explosions, collisions, or faulty payload assembly.

Loading next visibility...
Identifier
20827, 1990-086B
Orbit
LEO
Country
Flag of CISCIS
Related business
Manufacturer
Yuzhnoe
Mission
Spacecraft
Bus & Motor
S5M, Unknown motor
Mass
1,600 kg wet, 1,600 kg dry
Launch date (UTC)
1990-09-28 (36 years ago)
Launch vehicle
Unknown
Launch site
Plesetsk Missile And Space Complex (PKMTR)
Object type
Payload
Rocket body
Debris
Shape & HBR
Cyl, 1.4 m
Radar Cross Section
7.351 m², Large (>1 m²)

Expand to show TLE details & history
Last TLE update: 2 days ago

TLE from 2 days ago
0 SL-14 R/B
1 20827U 90086B   26171.32284008  .00000021  00000-0  58845-5 0  9994
2 20827  82.5278 199.9197 0102629 325.5714  33.8825 13.84650375804738
Epoch: 2026-06-20T07:44Z
TLE epoch observation values (Epoch: 2026-06-20T07:44:53.382Z)
Latitude
0.00003°
Longitude
175.15816°
Altitude
888.158 km
Speed
7.439 km/s
True Right ascension
13h 19m 40s
True Declination
0° 00' 00"
Sunlit
Object was in daylight at epoch
Visualization orbit readout
Latitude
Unknown
Longitude
Unknown
Altitude
Unknown
Speed
Unknown
Apparent Right ascension
Unknown
Apparent Declination
Unknown
Sunlit
N/A
Visualization observer readout
Local Sidereal Time
00:28:30
Azimuth
Unknown
Elevation
Unknown
Doppler factor
Unknown
Orbital elements
Apogee altitude
1,019.742 km
Perigee altitude
869.438 km
Semi-major axis
7,322.727 km
Eccentricity
0.01026
Inclination
82.5278°
RAAN
199.9197°
Arg. of periapsis
325.5714°
True anomaly
34.54517°
Mean anomaly
33.8825°
Eccentric anomaly
34.21313°
Mean motion
3.46365 °/min
Orbital period
103.94 mins
BSTAR
0.0000058845
Loading maneuver chart data...
Computing Atmospheric mass density...
Loading historical data...
Loading historical data...
Loading historical data...
Loading historical data...
Loading historical data...
Loading historical data...
Loading historical data...

Documentation

Showing up to 5 results
|